Waarnemingen

Advertentie
Mijn weer
Boulogne, Frankrijk (7002): temperatuur & dauwpunt: 15.03.2019 13:00:00 - 21.03.2019 13:00:00 (CET)Boulogne, Frankrijk (7002): windsnelheid & windstoten: 15.03.2019 13:00:00 - 21.03.2019 13:00:00 (CET)Boulogne, Frankrijk (7002): windrichting: 15.03.2019 13:00:00 - 21.03.2019 13:00:00 (CET)Boulogne, Frankrijk (7002): luchtdruk: 15.03.2019 13:00:00 - 21.03.2019 13:00:00 (CET)Boulogne, Frankrijk (7002): zicht: 15.03.2019 13:00:00 - 21.03.2019 13:00:00 (CET)Boulogne, Frankrijk (7002): neerslag: 15.03.2019 13:00:00 - 21.03.2019 13:00:00 (CET)
Datum & Tijd tt [°C] td [°C] ff [km/u] ff [kn] fx [km/u] fx [kn] dd ppp [hPa] vv [km] rr [mm]
21.03.2019 13:00:00 9,7 7,3 16 9 24 13 ZW 1034,9 10 0,0
21.03.2019 12:00:00 9,7 7,3 13 7 22 12 ZW 1035,2 - 0,0
21.03.2019 11:00:00 9,1 7,5 15 8 23 13 ZW 1035,3 - 0,0
21.03.2019 10:00:00 8,8 7,7 15 8 22 12 WZW 1035,2 14 0,0
21.03.2019 09:00:00 8,6 8,3 11 6 26 14 ZW 1034,9 - 0,0
21.03.2019 08:00:00 8,3 8,0 13 7 22 12 ZW 1034,6 - 0,0
21.03.2019 07:00:00 8,1 7,7 11 6 19 11 ZZW 1034,4 3,0 0,0
21.03.2019 06:00:00 8,1 7,5 12 6 21 11 ZZW 1034,3 - 0,0
21.03.2019 05:00:00 8,1 7,5 12 7 23 13 ZW 1034,2 - 0,0
21.03.2019 04:00:00 8,0 7,4 10 6 18 10 ZW 1034,1 8 0,0
21.03.2019 03:00:00 7,7 7,3 10 6 18 10 ZZW 1034,3 - 0,0
21.03.2019 02:00:00 7,5 7,2 9 5 18 10 Z 1034,6 6 0,0
21.03.2019 01:00:00 7,4 7,1 7 4 17 9 Z 1035,0 4,0 0,0
21.03.2019 00:00:00 7,6 7,3 8 5 15 8 Z 1035,1 - 0,0
20.03.2019 23:00:00 7,9 7,8 8 4 14 8 ZZW 1035,0 - 0,0
20.03.2019 22:00:00 8,1 7,8 10 6 16 9 ZZW 1035,1 6 0,0
20.03.2019 21:00:00 8,5 8,1 10 5 17 9 ZW 1034,9 - 0,0
20.03.2019 20:00:00 8,5 7,9 10 5 18 10 WZW 1034,9 - 0,0
20.03.2019 19:00:00 8,6 8,3 13 7 23 13 ZW 1034,4 5 0,0
20.03.2019 18:00:00 8,6 8,3 14 8 27 14 ZW 1034,0 - 0,0
20.03.2019 17:00:00 8,6 8,2 17 9 27 15 ZW 1034,1 - 0,0
20.03.2019 16:00:00 8,7 8,2 17 9 34 18 ZZW 1034,2 5 0,0
20.03.2019 15:00:00 8,8 8,5 18 10 35 19 ZZW 1034,3 - 0,0
20.03.2019 14:00:00 9,2 8,7 18 10 29 15 Z 1034,5 - 0,0
20.03.2019 13:00:00 9,2 8,4 18 10 30 16 ZW 1035,1 8 0,0
20.03.2019 12:00:00 9,5 8,6 19 11 33 18 ZW 1034,5 - 0,0
20.03.2019 11:00:00 9,3 8,4 21 11 33 18 ZW 1034,0 - 0,0
20.03.2019 10:00:00 9,2 8,4 14 8 27 15 ZZW 1033,7 - 0,0
20.03.2019 09:00:00 8,9 8,4 16 9 26 14 ZW 1033,5 - 0,0
20.03.2019 08:00:00 8,8 8,2 15 8 24 13 ZW 1033,0 - 0,0
20.03.2019 07:00:00 8,6 8,2 13 7 24 13 ZZW 1032,7 10 0,0
20.03.2019 06:00:00 8,6 8,0 11 6 27 15 ZZW 1032,0 - 0,0
20.03.2019 05:00:00 8,7 8,1 14 8 27 15 ZW 1031,8 - 0,0
20.03.2019 04:00:00 8,8 8,2 18 10 31 17 ZW 1031,7 10 0,0
20.03.2019 03:00:00 8,9 8,1 16 9 28 15 ZW 1032,1 - 0,0
20.03.2019 02:00:00 8,9 8,0 19 10 34 18 ZW 1032,1 - 0,0
20.03.2019 01:00:00 8,9 7,7 19 10 31 17 ZW 1031,8 - 0,0
20.03.2019 00:00:00 8,5 7,3 18 10 26 14 ZW 1031,7 - 0,0
19.03.2019 23:00:00 8,5 7,9 11 6 25 13 ZZW 1031,2 - 0,0
19.03.2019 22:00:00 8,6 8,2 17 9 25 14 ZW 1031,0 - 0,0
19.03.2019 21:00:00 8,6 8,2 14 8 26 14 ZW 1031,1 - 0,0
19.03.2019 20:00:00 8,6 7,8 16 9 29 16 ZW 1030,3 - 0,0
19.03.2019 19:00:00 8,9 7,7 16 9 29 16 ZW 1029,9 - 0,0
19.03.2019 18:00:00 9,6 7,7 20 11 31 17 ZW 1029,4 - 0,0
19.03.2019 17:00:00 10,0 7,9 19 10 35 19 ZW 1029,2 - 0,0
19.03.2019 16:00:00 9,6 7,7 22 12 31 17 ZW 1029,1 12 0,0
19.03.2019 15:00:00 10,5 7,7 20 11 29 16 ZW 1028,9 - 0,0
19.03.2019 14:00:00 9,8 7,6 21 11 31 17 ZW 1029,1 - 0,0
19.03.2019 13:00:00 9,4 7,5 21 11 31 17 ZW 1029,3 - 0,0
19.03.2019 12:00:00 9,6 7,2 17 9 29 16 ZW 1029,0 - 0,0
19.03.2019 11:00:00 8,7 7,3 14 8 25 13 ZZW 1028,7 - 0,0
19.03.2019 10:00:00 7,9 7,6 11 6 22 12 ZZW 1028,1 12 0,0
19.03.2019 09:00:00 5,7 5,7 9 5 15 8 ZZO 1027,8 - 0,0
19.03.2019 08:00:00 4,6 4,5 8 5 16 9 ZZO 1027,3 - 0,0
19.03.2019 07:00:00 3,9 3,6 10 5 18 10 ZZO 1026,8 8 0,0
19.03.2019 06:00:00 3,8 3,5 10 6 16 8 ZZO 1026,7 - 0,0
19.03.2019 05:00:00 4,0 3,6 11 6 16 9 ZO 1026,4 - 0,0
19.03.2019 04:00:00 4,9 4,6 9 5 16 8 ZO 1025,9 - 0,2
19.03.2019 03:00:00 4,6 4,2 8 5 15 8 ZO 1025,6 - 0,0
19.03.2019 02:00:00 5,2 4,6 9 5 12 7 ZZO 1025,6 - 0,0
19.03.2019 01:00:00 5,5 4,8 5 3 10 5 ZZO 1025,4 10 0,0
19.03.2019 00:00:00 6,0 4,8 4 2 8 5 Z 1025,1 - 0,0
18.03.2019 23:00:00 6,4 4,9 6 3 10 5 ZW 1024,8 - 0,0
18.03.2019 22:00:00 6,7 4,7 7 4 12 6 ZW 1024,4 10 0,0
18.03.2019 21:00:00 7,2 4,5 7 4 19 10 W 1024,1 - 0,0
18.03.2019 20:00:00 7,7 4,3 12 7 26 14 W 1023,7 - 0,0
18.03.2019 19:00:00 7,8 3,8 15 8 29 16 W 1023,3 - 0,0
18.03.2019 18:00:00 8,2 4,0 20 11 32 17 W 1022,8 - 0,0
18.03.2019 17:00:00 8,5 4,3 16 9 26 14 WZW 1022,3 - 0,0
18.03.2019 16:00:00 9,1 4,3 15 8 29 16 WZW 1022,0 12 0,0
18.03.2019 15:00:00 8,4 3,6 16 8 27 14 WZW 1022,1 - 0,0
18.03.2019 14:00:00 8,5 3,7 15 8 26 14 W 1022,1 - 0,0
18.03.2019 13:00:00 8,4 4,0 17 9 25 14 W 1022,0 15 0,0
18.03.2019 12:00:00 7,8 4,0 10 5 24 13 WNW 1021,7 - 0,0
18.03.2019 11:00:00 6,7 3,5 14 8 29 16 NW 1021,2 - 0,0
18.03.2019 10:00:00 6,3 3,5 18 10 32 18 NW 1020,5 10 0,0
18.03.2019 09:00:00 6,4 3,5 17 9 30 16 NW 1019,7 - 0,0
18.03.2019 08:00:00 6,0 3,3 17 9 30 16 NW 1019,1 - 0,0
18.03.2019 07:00:00 5,8 3,6 20 11 34 18 NW 1018,3 10 0,0
18.03.2019 06:00:00 5,8 3,6 20 11 37 20 NW 1017,7 - 0,0
18.03.2019 05:00:00 6,0 4,0 19 11 36 20 NW 1017,1 - 0,0
18.03.2019 04:00:00 6,2 3,9 21 11 39 21 NW 1016,4 14 0,0
18.03.2019 03:00:00 6,5 3,5 25 14 47 26 NW 1015,8 - 0,0
18.03.2019 02:00:00 6,8 3,4 25 14 43 23 WNW 1015,1 - 0,0
18.03.2019 01:00:00 6,4 3,0 25 13 45 25 WNW 1014,4 16 0,0
18.03.2019 00:00:00 6,5 2,8 23 13 48 26 WNW 1013,8 - 0,0
17.03.2019 23:00:00 7,1 2,8 32 17 51 28 WNW 1013,2 - 0,0
17.03.2019 22:00:00 7,2 2,5 25 13 46 25 W 1012,4 15 0,0
17.03.2019 21:00:00 5,6 1,7 17 9 47 25 WZW 1011,9 - 0,0
17.03.2019 20:00:00 5,2 2,5 23 12 59 32 NW 1011,2 - 1,0
17.03.2019 19:00:00 3,7 2,5 46 25 81 44 NW 1011,0 - 1,2
17.03.2019 18:00:00 7,9 1,7 41 22 69 37 W 1009,5 - 0,0
17.03.2019 17:00:00 8,2 2,2 36 20 63 34 W 1008,8 - 0,0
17.03.2019 16:00:00 8,2 1,3 42 23 68 37 W 1008,4 - 0,0
17.03.2019 15:00:00 8,1 1,9 37 20 63 34 W 1007,9 - 0,0
17.03.2019 14:00:00 7,9 3,0 35 19 56 30 W 1007,4 - 0,0
17.03.2019 13:00:00 7,7 3,0 30 16 48 26 W 1007,2 18 0,0
17.03.2019 12:00:00 7,8 3,5 29 16 45 24 W 1006,7 - 0,0
17.03.2019 11:00:00 6,8 2,7 34 18 51 28 W 1005,8 - 0,0
17.03.2019 10:00:00 6,7 2,6 36 19 57 31 W 1005,0 20 0,0
17.03.2019 09:00:00 6,3 2,9 36 19 57 31 W 1003,9 - 0,0
17.03.2019 08:00:00 6,5 2,9 41 22 61 33 W 1002,9 - 0,0
17.03.2019 07:00:00 6,8 3,4 42 23 64 35 W 1001,8 12 0,0
17.03.2019 06:00:00 7,3 3,3 40 22 63 34 W 1000,8 - 0,0
17.03.2019 05:00:00 7,6 3,3 44 24 64 34 W 1000,0 - 0,0
17.03.2019 04:00:00 8,0 4,9 47 25 70 38 W 999,5 - 0,2
17.03.2019 03:00:00 8,0 6,9 36 19 68 37 W 998,8 - 0,4
17.03.2019 02:00:00 8,9 7,8 55 30 84 46 WZW 998,6 - 1,0
17.03.2019 01:00:00 9,1 6,9 45 24 97 52 ZW 998,3 3,5 0,0
17.03.2019 00:00:00 9,7 5,9 45 24 93 50 ZZW 998,6 - 0,0
16.03.2019 23:00:00 9,9 5,5 46 25 81 44 ZZW 999,6 - 0,0
16.03.2019 22:00:00 10,1 5,7 42 23 90 49 ZZW 1000,4 7 0,0
16.03.2019 21:00:00 10,2 6,2 45 24 96 52 ZW 1001,2 - 0,0
16.03.2019 20:00:00 10,3 6,8 44 24 81 44 ZW 1002,3 - 0,0
16.03.2019 19:00:00 10,4 6,5 45 24 66 35 ZW 1002,8 - 0,0
16.03.2019 18:00:00 9,9 7,5 37 20 63 34 ZW 1003,6 - 0,0
16.03.2019 17:00:00 10,2 6,9 37 20 65 35 ZW 1004,3 - 0,0
16.03.2019 16:00:00 10,1 6,6 41 22 75 40 ZW 1005,3 7 0,0
16.03.2019 15:00:00 9,9 6,2 52 28 84 46 ZW 1006,3 - 0,0
16.03.2019 14:00:00 9,7 6,6 40 22 86 47 ZW 1007,7 - 0,0
16.03.2019 13:00:00 9,7 6,6 48 26 87 47 ZW 1008,1 4,0 0,0
16.03.2019 12:00:00 9,4 7,0 44 24 79 43 ZW 1008,3 - 0,0
16.03.2019 11:00:00 9,4 7,8 42 23 77 42 ZW 1009,1 - 0,0
16.03.2019 10:00:00 9,0 8,2 55 30 89 48 ZW 1009,1 7 0,2
16.03.2019 09:00:00 9,7 7,5 50 27 82 44 ZW 1009,2 - 0,0
16.03.2019 08:00:00 9,3 7,9 44 24 78 42 ZW 1010,1 - 0,0
16.03.2019 07:00:00 9,4 8,2 54 29 79 42 ZW 1010,1 - 0,0
16.03.2019 06:00:00 9,4 8,3 52 28 76 41 WZW 1010,7 - 0,0
16.03.2019 05:00:00 9,4 8,3 51 28 73 40 WZW 1010,9 - 0,0
16.03.2019 04:00:00 9,4 8,6 52 28 82 44 WZW 1011,4 - 0,0
16.03.2019 03:00:00 9,4 9,4 46 25 76 41 WZW 1012,2 - 0,0
16.03.2019 02:00:00 9,6 9,3 46 25 70 38 WZW 1012,5 - 0,0
16.03.2019 01:00:00 9,7 9,2 44 24 68 37 WZW 1012,7 7 0,0
16.03.2019 00:00:00 9,8 9,2 41 22 66 36 WZW 1013,0 - 0,0
15.03.2019 23:00:00 9,9 9,3 42 23 67 36 WZW 1012,8 - 0,0
15.03.2019 22:00:00 10,0 9,2 38 21 68 37 WZW 1012,6 - 0,0
15.03.2019 21:00:00 10,1 9,3 37 20 71 38 W 1012,3 - 0,0
15.03.2019 20:00:00 10,2 9,3 42 23 73 40 WZW 1011,6 - 0,0
15.03.2019 19:00:00 10,3 9,2 39 21 78 42 WZW 1011,0 - 0,0
15.03.2019 18:00:00 10,4 9,2 43 23 76 41 WZW 1010,4 - 0,0
15.03.2019 17:00:00 10,4 9,5 46 25 79 42 WZW 1010,2 - 0,0
15.03.2019 16:00:00 10,5 9,4 49 26 83 45 WZW 1009,9 - 0,0
15.03.2019 15:00:00 10,6 9,7 49 26 81 44 WZW 1009,6 - 0,0
15.03.2019 14:00:00 10,6 9,5 47 25 78 42 WZW 1009,8 - 0,0
15.03.2019 13:00:00 10,5 9,4 47 26 82 44 WZW 1009,9 6 0,0

tt = temperatuur
td = dauwpunt
ff = windsnelheid
fx = windstoten
dd = windrichting
ppp = luchtdruk
vv = zicht
rr = neerslag

Weerstations in de omgeving